Simultaneous Nadir Overpasses (SNOs) Predictions

Prediction of SNOs between AQUA and METOP-B Satellite Orbit:

Table of predicted SNOs for the next 14.0 days since TLE Epoch: 4/9/2022
Index Date (AQUA) Time (AQUA) Lat,Lon (AQUA) SZA (AQUA ) Date (METOP-B) Time (METOP-B) Lat,Lon (METOP-B) SZA (METOP-B ) Distance(km) Time Diff (sec)
1 04/11/2022 08:15:28 73.89, 50.57 65.53 04/11/2022 08:14:51 73.89, 50.64 65.54 2.27 37
2 04/11/2022 09:04:53 -73.92,-141.86 114.45 04/11/2022 09:05:31 -73.92,-141.95 114.45 2.98 38
3 04/14/2022 02:59:51 -73.48, -49.66 115.92 04/14/2022 02:58:42 -73.42, -51.39 115.92 55.25 69
4 04/14/2022 03:49:26 73.89, 117.09 64.50 04/14/2022 03:49:12 73.91, 117.09 64.53 2.46 14
5 04/14/2022 04:38:53 -73.97, -75.44 115.43 04/14/2022 04:39:53 -73.94, -75.50 115.46 3.25 60
6 04/16/2022 22:33:57 -73.87, 16.00 116.52 04/16/2022 22:32:55 -73.88, 16.09 116.51 2.63 62
7 04/16/2022 23:23:25 73.92,-176.47 63.53 04/16/2022 23:23:34 73.92,-176.47 63.53 0.19 9
8 04/17/2022 00:12:58 -74.30, -9.70 116.08 04/17/2022 00:14:08 -74.30, -8.21 116.14 45.06 70
9 04/19/2022 18:07:55 -73.89, 82.49 117.49 04/19/2022 18:07:17 -73.88, 82.51 117.49 0.85 38
10 04/19/2022 18:57:23 73.94,-109.99 62.56 04/19/2022 18:57:56 73.93,-110.05 62.55 2.63 33
11 04/22/2022 12:52:15 73.35, -17.47 61.01 04/22/2022 12:51:08 73.30, -19.76 61.03 73.34 67
12 04/22/2022 13:41:51 -73.89, 149.02 118.45 04/22/2022 13:41:38 -73.88, 148.92 118.45 3.10 13
13 04/22/2022 14:31:19 73.95, -43.48 61.61 04/22/2022 14:32:16 73.97, -43.52 61.63 3.20 57



Historial Predications of SNOs between AQUA and METOP-B
